Regional Weather Roundup
Issued by NWS

Home | Current Version | Previous Version | Text Only | Print | Product List | Glossary Off
Versions: 1 2 3 4 5 6 7 8 9 10 11 12 13 14 15 16 17 18 19 20 21 22 23 24 25 26 27 28 29 30 31 32 33 34 35 36 37 38 39 40 41 42 43 44 45 46 47 48 49 50

000
ASUS43 KLMK 291202
RWRKY
KENTUCKY REGIONAL WEATHER ROUNDUP
NATIONAL WEATHER SERVICE LOUISVILLE KY
800 AM EDT SUN MAY 29 2016

NOTE "FAIR" INDICATES FEW OR NO CLOUDS BELOW 12,000 FEET
WITH NO SIGNIFICANT WEATHER AND/OR OBSTRUCTIONS TO VISIBILITY.

KYZ001>023-026-027-061>063-070>075-291300-
WESTERN AND SOUTH CENTRAL KENTUCKY

CITY           SKY/WX    TMP DP  RH WIND       PRES   REMARKS
PADUCAH        MOSUNNY   70  66  87 SW5       30.09R
HENDERSON      MOSUNNY   70  64  83 S5        30.08R
OWENSBORO      SUNNY     71  68  90 S9        30.10S
HOPKINSVILLE   NOT AVBL
BOWLING GREEN  SUNNY     68  65  90 CALM      30.13R
GLASGOW        NOT AVBL
$$

KYZ024-025-028>034-038-045-046-053-291300-
NORTH CENTRAL KENTUCKY

CITY           SKY/WX    TMP DP  RH WIND       PRES   REMARKS
LOUISVILLE/SDF MOSUNNY   68  64  87 SE6       30.11S
LOUISVILLE/LOU SUNNY     70  64  81 CALM      30.12R
FORT KNOX      NOT AVBL
$$

KYZ035>037-039>044-047>052-055>060-089>105-291300-
NORTHEAST KENTUCKY

CITY           SKY/WX    TMP DP  RH WIND       PRES   REMARKS
LEXINGTON      PTSUNNY   70  63  78 S5        30.14R
COVINGTON      CLOUDY    69  63  81 CALM      30.12R
FRANKFORT      CLOUDY    67  63  87 CALM      30.12R
$$

KYZ054-064>069-076>088-106>120-291300-
SOUTHEAST KENTUCKY

CITY           SKY/WX    TMP DP  RH WIND       PRES   REMARKS
JACKSON        CLOUDY    68  64  87 CALM      30.15F
LONDON         CLOUDY    66  63  90 CALM      30.16R
SOMERSET       NOT AVBL
MIDDLESBORO    CLOUDY    64  64  97 CALM      30.17S
MONTICELLO     CLOUDY    66  64  93 W9        30.16S
$$





USA.gov is the U.S. government's official web portal to all federal, state and local government web resources and services.